Regional Weather Roundup
Issued by NWS Northern Indiana

Home | Current Version | Previous Version | Text Only | Print | Product List | Glossary On
Versions: 1 2 3 4 5 6 7 8 9 10 11 12 13 14 15 16 17 18 19 20 21 22 23 24 25 26 27 28 29 30 31 32 33 34 35 36 37 38 39 40 41 42 43 44 45 46 47 48 49 50
000
ASUS43 KIWX 011410
RWRIWX

KIWX WEATHER ROUNDUP
NATIONAL WEATHER SERVICE NORTHERN INDIANA
1000 AM EDT FRI AUG 01 2014

NOTE: "FAIR" INDICATES FEW OR NO CLOUDS BELOW 12,000 FEET WITH NO
SIGNIFICANT WEATHER AND/OR OBSTRUCTIONS TO VISIBILITY.

* THESE STATIONS ARE NOT UNDER NWS QUALITY CONTROL. THEY ALSO MAY NOT
  REPORT WEATHER SUCH AS PRECIPITATION OR FOG.

INZ001>027-011500-
NORTHERN INDIANA

CITY           SKY/WX    TMP DP  RH WIND       PRES   REMARKS
GARY*          PTSUNNY   72  63  73 W7        30.10S
VALPARAISO     MOSUNNY   70  62  76 SW5       30.11S
MICHIGAN CITY* MOSUNNY   72  64  78 S3        30.10S
LAPORTE*       MOSUNNY   68  65  90 CALM      30.12S
KNOX*          MOSUNNY   69  61  77 SW3       30.11S
SOUTH BEND     SUNNY     72  62  71 SW3       30.11S
GOSHEN         SUNNY     71  63  75 SW5       30.12R
MONTICELLO*    MOSUNNY   67  62  84 CALM      30.12S
LOGANSPORT*    MOSUNNY   68  61  77 S3        30.13S
ROCHESTER*     MOSUNNY   73  61  64 W5        30.13S
WARSAW*        SUNNY     70  61  73 W5        30.12S
ANGOLA*        SUNNY     72  63  73 SW3       30.12S
FORT WAYNE     MOSUNNY   71  62  73 W3        30.14S
HUNTINGTON*    SUNNY     70  62  76 CALM      30.13S
PERU/GRISSOM   MOSUNNY   71  66  85 W2        30.13S
MARION*        SUNNY     69  62  78 CALM      30.14S

$$
INZ028>050-011500-
CENTRAL INDIANA

CITY           SKY/WX    TMP DP  RH WIND       PRES   REMARKS
LAFAYETTE      MOSUNNY   68  61  78 CALM      30.12S
KOKOMO*        MOSUNNY   70  63  78 CALM      30.13S
MUNCIE*        SUNNY     72  62  71 CALM      30.14R
INDIANAPOLIS   MOSUNNY   74  62  66 CALM      30.12S

$$
MIZ043>046-050>051-056>058-064>065-071>073-077>080-011500-
SOUTHWEST LOWER MICHIGAN

CITY           SKY/WX    TMP DP  RH WIND       PRES   REMARKS
BATTLE CREEK   SUNNY     71  62  73 S6        30.11S
BENTON HARBOR  SUNNY     73  62  68 W7        30.10R
COLDWATER*     SUNNY     71  63  75 CALM      30.11S
HILLSDALE*     SUNNY     73  65  74 CALM      30.12S
HOLLAND        SUNNY     73  63  70 SW5       30.09S
GRAND RAPIDS   MOSUNNY   73  62  68 W7        30.09S
KALAMAZOO      SUNNY     73  62  68 SW7       30.11R
STURGIS*       SUNNY     70  64  83 CALM      30.11S
THREE RIVERS*  FAIR      72  66  80 SW3       30.11S

$$
OHZ001>008-015>018-024>025-011500-
NORTHWEST OHIO

CITY           SKY/WX    TMP DP  RH WIND       PRES   REMARKS
WAUSEON*       FAIR      72  64  78 W6        30.12S
DEFIANCE       SUNNY     72  63  73 SW6       30.12S
FINDLAY        SUNNY     74  62  66 VRB3      30.12F
TOLEDO EXPRESS SUNNY     73  62  68 SW7       30.11F
TOLEDO METCALF SUNNY     72  61  68 SW6       30.12S
LIMA           SUNNY     72  63  73 CALM      30.13F

$$
&&


USA.gov is the U.S. government's official web portal to all federal, state and local government web resources and services.